| time (UTC) | temp C | wind direction | speed KPH | gust KPH | rain 1hr cm | rain 24hr cm | rain mn cm | humidity % | barometer mb |
| 20260507143605 | 16 | 137 | 12.9 | 20.9 | 0.00 | 0.00 | 0.00 | 55 | 1014.3 |
| 20260507142705 | 17 | 132 | 12.9 | 24.1 | 0.00 | 0.00 | 0.00 | 56 | 1014.2 |
| 20260507141826 | 17 | 140 | 12.9 | 22.5 | 0.00 | 0.00 | 0.00 | 56 | 1014.4 |
| 20260507140926 | 17 | 162 | 11.3 | 19.3 | 0.00 | 0.00 | 0.00 | 54 | 1014.4 |
| 20260507140006 | 16 | 173 | 12.9 | 22.5 | 0.00 | 0.00 | 0.00 | 50 | 1014.5 |
| 20260507135405 | 17 | 171 | 11.3 | 24.1 | 0.00 | 0.00 | 0.00 | 51 | 1014.5 |
| 20260507134505 | 17 | 153 | 9.7 | 20.9 | 0.00 | 0.00 | 0.00 | 50 | 1014.5 |
| 20260507133604 | 17 | 138 | 11.3 | 22.5 | 0.00 | 0.00 | 0.00 | 52 | 1014.4 |
| 20260507132705 | 17 | 129 | 9.7 | 19.3 | 0.00 | 0.00 | 0.00 | 50 | 1014.5 |
| 20260507131804 | 17 | 138 | 11.3 | 27.4 | 0.00 | 0.00 | 0.00 | 50 | 1014.5 |
| 20260507130905 | 17 | 142 | 9.7 | 19.3 | 0.00 | 0.00 | 0.00 | 50 | 1014.6 |
| 20260507130004 | 17 | 141 | 11.3 | 22.5 | 0.00 | 0.00 | 0.00 | 52 | 1014.6 |
| 20260507125405 | 16 | 143 | 12.9 | 25.7 | 0.00 | 0.00 | 0.00 | 51 | 1014.6 |
| 20260507124505 | 17 | 152 | 14.5 | 22.5 | 0.00 | 0.00 | 0.00 | 52 | 1014.7 |
| 20260507123626 | 17 | 135 | 11.3 | 20.9 | 0.00 | 0.00 | 0.00 | 54 | 1014.7 |
| 20260507122705 | 16 | 144 | 12.9 | 24.1 | 0.00 | 0.00 | 0.00 | 56 | 1014.7 |
| 20260507121805 | 16 | 159 | 11.3 | 24.1 | 0.00 | 0.00 | 0.00 | 54 | 1014.8 |
| 20260507120904 | 16 | 160 | 12.9 | 22.5 | 0.00 | 0.00 | 0.00 | 55 | 1014.7 |
| 20260507120005 | 16 | 151 | 12.9 | 27.4 | 0.00 | 0.00 | 0.00 | 55 | 1014.8 |
| 20260507115405 | 16 | 156 | 11.3 | 25.7 | 0.00 | 0.00 | 0.00 | 56 | 1014.8 |
| 20260507114505 | 17 | 151 | 12.9 | 20.9 | 0.00 | 0.00 | 0.00 | 57 | 1014.9 |
| 20260507113605 | 16 | 156 | 11.3 | 25.7 | 0.00 | 0.00 | 0.00 | 60 | 1014.9 |
| 20260507112705 | 16 | 146 | 11.3 | 29.0 | 0.00 | 0.00 | 0.00 | 56 | 1014.9 |
| 20260507111826 | 16 | 148 | 12.9 | 29.0 | 0.00 | 0.00 | 0.00 | 58 | 1015.0 |
| 20260507110925 | 16 | 152 | 11.3 | 22.5 | 0.00 | 0.00 | 0.00 | 59 | 1014.8 |
| 20260507110026 | 16 | 155 | 11.3 | 20.9 | 0.00 | 0.00 | 0.00 | 58 | 1014.9 |
| 20260507105425 | 16 | 158 | 12.9 | 25.7 | 0.00 | 0.00 | 0.00 | 62 | 1015.0 |
| 20260507104504 | 15 | 169 | 12.9 | 24.1 | 0.00 | 0.00 | 0.00 | 64 | 1015.0 |
| 20260507103603 | 15 | 157 | 11.3 | 25.7 | 0.00 | 0.00 | 0.00 | 67 | 1015.1 |
| 20260507102704 | 15 | 145 | 11.3 | 22.5 | 0.00 | 0.00 | 0.00 | 68 | 1015.0 |
| 20260507101825 | 15 | 146 | 11.3 | 22.5 | 0.00 | 0.00 | 0.00 | 68 | 1015.0 |
| 20260507100904 | 15 | 147 | 12.9 | 22.5 | 0.00 | 0.00 | 0.00 | 68 | 1015.0 |
| 20260507100005 | 15 | 148 | 9.7 | 22.5 | 0.00 | 0.00 | 0.00 | 70 | 1015.0 |
| 20260507095403 | 15 | 137 | 9.7 | 16.1 | 0.00 | 0.00 | 0.00 | 70 | 1015.0 |
| 20260507094504 | 15 | 156 | 9.7 | 19.3 | 0.00 | 0.00 | 0.00 | 71 | 1015.0 |
| 20260507093603 | 14 | 160 | 8.0 | 17.7 | 0.00 | 0.00 | 0.00 | 72 | 1015.0 |
| 20260507092703 | 14 | 142 | 8.0 | 17.7 | 0.00 | 0.00 | 0.00 | 71 | 1014.9 |
| 20260507091804 | 13 | 154 | 9.7 | 16.1 | 0.00 | 0.00 | 0.00 | 72 | 1015.0 |
| 20260507090904 | 13 | 137 | 9.7 | 16.1 | 0.00 | 0.00 | 0.00 | 72 | 1014.9 |
| 20260507090004 | 14 | 135 | 6.4 | 17.7 | 0.00 | 0.00 | 0.00 | 74 | 1014.9 |
| 20260507085405 | 14 | 132 | 8.0 | 17.7 | 0.00 | 0.00 | 0.00 | 75 | 1014.9 |
| 20260507084504 | 13 | 147 | 9.7 | 19.3 | 0.00 | 0.00 | 0.00 | 76 | 1014.9 |
| 20260507083604 | 13 | 144 | 8.0 | 17.7 | 0.00 | 0.00 | 0.00 | 78 | 1014.9 |
| 20260507082704 | 13 | 133 | 6.4 | 16.1 | 0.00 | 0.00 | 0.00 | 80 | 1014.8 |
| 20260507081804 | 12 | 123 | 8.0 | 17.7 | 0.00 | 0.00 | 0.00 | 81 | 1014.9 |
| 20260507080925 | 12 | 121 | 8.0 | 16.1 | 0.00 | 0.00 | 0.00 | 82 | 1014.8 |
| 20260507080003 | 12 | 92 | 6.4 | 12.9 | 0.00 | 0.00 | 0.00 | 82 | 1014.9 |
| 20260507075425 | 12 | 85 | 6.4 | 12.9 | 0.00 | 0.00 | 0.00 | 82 | 1014.9 |
| 20260507074504 | 12 | 86 | 6.4 | 12.9 | 0.00 | 0.00 | 0.00 | 82 | 1014.9 |
| 20260507073604 | 12 | 56 | 1.6 | 6.4 | 0.00 | 0.00 | 0.00 | 82 | 1014.9 |
| 20260507072704 | 11 | 55 | 1.6 | 6.4 | 0.00 | 0.00 | 0.00 | 82 | 1014.8 |
| 20260507071803 | 10 | 45 | 3.2 | 6.4 | 0.00 | 0.00 | 0.00 | 83 | 1014.8 |
| 20260507070903 | 10 | 44 | 1.6 | 4.8 | 0.00 | 0.00 | 0.00 | 83 | 1014.8 |
| 20260507070025 | 9 | 44 | 0.0 | 3.2 | 0.00 | 0.00 | 0.00 | 83 | 1014.7 |
| 20260507065403 | 9 | 47 | 1.6 | 3.2 | 0.00 | 0.00 | 0.00 | 83 | 1014.7 |
| 20260507064504 | 9 | 49 | 1.6 | 4.8 | 0.00 | 0.00 | 0.00 | 83 | 1014.8 |
| 20260507063624 | 8 | 53 | 1.6 | 3.2 | 0.00 | 0.00 | 0.00 | 83 | 1014.8 |
| 20260507062703 | 8 | 53 | 0.0 | 1.6 | 0.00 | 0.00 | 0.00 | 83 | 1014.8 |
| 20260507061803 | 8 | 0 | 0.0 | 0.0 | 0.00 | 0.03 | 0.00 | 83 | 1014.7 |
| 20260507060903 | 8 | 54 | 0.0 | 4.8 | 0.00 | 0.03 | 0.00 | 83 | 1014.7 |
| 20260507060003 | 8 | 54 | 1.6 | 4.8 | 0.00 | 0.03 | 0.00 | 82 | 1014.5 |
| 20260507055403 | 8 | 54 | 3.2 | 4.8 | 0.00 | 0.03 | 0.00 | 82 | 1014.4 |
| 20260507054504 | 8 | 54 | 1.6 | 3.2 | 0.00 | 0.03 | 0.00 | 82 | 1014.3 |
| 20260507053604 | 8 | 0 | 0.0 | 0.0 | 0.00 | 0.03 | 0.00 | 82 | 1014.3 |
| 20260507052725 | 7 | 54 | 0.0 | 4.8 | 0.00 | 0.03 | 0.00 | 82 | 1014.1 |
| 20260507051806 | 7 | 55 | 3.2 | 6.4 | 0.00 | 0.03 | 0.00 | 82 | 1014.1 |
| 20260507050906 | 7 | 53 | 1.6 | 4.8 | 0.00 | 0.03 | 0.00 | 82 | 1014.3 |
| 20260507050006 | 7 | 40 | 3.2 | 8.0 | 0.00 | 0.03 | 0.00 | 81 | 1014.2 |
| 20260507045406 | 7 | 37 | 1.6 | 6.4 | 0.00 | 0.03 | 0.00 | 81 | 1014.1 |
| 20260507044507 | 7 | 38 | 1.6 | 4.8 | 0.00 | 0.03 | 0.00 | 81 | 1014.1 |
| 20260507043606 | 7 | 52 | 3.2 | 6.4 | 0.00 | 0.03 | 0.00 | 81 | 1014.1 |
| 20260507042706 | 7 | 45 | 4.8 | 9.7 | 0.00 | 0.03 | 0.00 | 81 | 1014.0 |
| 20260507041827 | 8 | 50 | 3.2 | 8.0 | 0.00 | 0.03 | 0.00 | 80 | 1014.0 |
| 20260507040905 | 8 | 39 | 3.2 | 9.7 | 0.00 | 0.03 | 0.00 | 80 | 1014.1 |
| 20260507040006 | 8 | 42 | 4.8 | 9.7 | 0.00 | 0.03 | 0.00 | 80 | 1014.0 |
| 20260507035406 | 8 | 36 | 3.2 | 8.0 | 0.00 | 0.03 | 0.00 | 80 | 1014.1 |
| 20260507034506 | 8 | 44 | 3.2 | 6.4 | 0.00 | 0.03 | 0.00 | 80 | 1014.0 |
| 20260507033607 | 8 | 46 | 3.2 | 8.0 | 0.00 | 0.03 | 0.00 | 79 | 1013.9 |
| 20260507032705 | 8 | 32 | 3.2 | 6.4 | 0.00 | 0.03 | 0.00 | 79 | 1013.9 |
| 20260507031807 | 8 | 52 | 3.2 | 8.0 | 0.00 | 0.03 | 0.00 | 79 | 1013.9 |
| 20260507030905 | 8 | 51 | 4.8 | 9.7 | 0.00 | 0.03 | 0.00 | 79 | 1013.8 |
| 20260507030028 | 8 | 38 | 3.2 | 6.4 | 0.00 | 0.03 | 0.00 | 79 | 1013.7 |
| 20260507025405 | 8 | 31 | 4.8 | 8.0 | 0.00 | 0.03 | 0.00 | 79 | 1013.6 |
| 20260507024506 | 8 | 31 | 4.8 | 8.0 | 0.00 | 0.03 | 0.00 | 79 | 1013.6 |
| 20260507023605 | 8 | 46 | 4.8 | 9.7 | 0.00 | 0.03 | 0.00 | 79 | 1013.6 |
| 20260507022706 | 8 | 37 | 4.8 | 8.0 | 0.00 | 0.03 | 0.00 | 79 | 1013.6 |
| 20260507021805 | 8 | 35 | 4.8 | 8.0 | 0.00 | 0.03 | 0.00 | 79 | 1013.6 |
| 20260507020927 | 8 | 36 | 3.2 | 6.4 | 0.00 | 0.03 | 0.00 | 80 | 1013.7 |
| 20260507020006 | 8 | 34 | 3.2 | 8.0 | 0.00 | 0.03 | 0.00 | 80 | 1013.7 |
| 20260507015406 | 8 | 30 | 3.2 | 8.0 | 0.00 | 0.03 | 0.00 | 80 | 1013.8 |
| 20260507014505 | 8 | 34 | 3.2 | 6.4 | 0.00 | 0.03 | 0.00 | 80 | 1013.7 |
| 20260507013605 | 8 | 33 | 3.2 | 6.4 | 0.00 | 0.03 | 0.00 | 80 | 1013.7 |
| 20260507012727 | 8 | 32 | 1.6 | 6.4 | 0.00 | 0.03 | 0.00 | 81 | 1013.6 |
| 20260507011826 | 8 | 32 | 3.2 | 4.8 | 0.00 | 0.03 | 0.00 | 81 | 1013.8 |
| 20260507010005 | 9 | 25 | 1.6 | 6.4 | 0.00 | 0.03 | 0.00 | 81 | 1013.7 |
| 20260507005427 | 9 | 25 | 1.6 | 4.8 | 0.00 | 0.03 | 0.00 | 81 | 1013.7 |
| 20260507004506 | 9 | 29 | 1.6 | 6.4 | 0.00 | 0.03 | 0.00 | 81 | 1013.7 |
| 20260507003606 | 9 | 0 | 0.0 | 0.0 | 0.00 | 0.03 | 0.00 | 81 | 1013.7 |
| 20260507002706 | 10 | 278 | 0.0 | 3.2 | 0.00 | 0.03 | 0.00 | 80 | 1013.8 |
| 20260507001806 | 10 | 278 | 0.0 | 3.2 | 0.00 | 0.03 | 0.00 | 80 | 1013.9 |
| 20260507000906 | 10 | 0 | 0.0 | 0.0 | 0.00 | 0.03 | 0.00 | 80 | 1013.8 |
| 20260507000006 | 10 | 0 | 0.0 | 0.0 | 0.00 | 0.03 | 0.00 | 79 | 1013.8 |
| 20260506235405 | 10 | 0 | 0.0 | 0.0 | 0.00 | 0.03 | 0.00 | 79 | 1013.8 |
| 20260506234506 | 10 | 0 | 0.0 | 0.0 | 0.00 | 0.03 | 0.00 | 79 | 1013.7 |
| 20260506233605 | 10 | 0 | 0.0 | 0.0 | 0.00 | 0.03 | 0.00 | 79 | 1013.7 |
| 20260506232707 | 10 | 0 | 0.0 | 0.0 | 0.00 | 0.03 | 0.00 | 79 | 1013.7 |
| 20260506231826 | 10 | 0 | 0.0 | 0.0 | 0.00 | 0.03 | 0.00 | 78 | 1013.7 |
| 20260506230928 | 10 | 0 | 0.0 | 0.0 | 0.00 | 0.03 | 0.00 | 78 | 1013.7 |
| 20260506230005 | 10 | 0 | 0.0 | 0.0 | 0.00 | 0.03 | 0.00 | 78 | 1013.8 |
| 20260506225405 | 10 | 0 | 0.0 | 0.0 | 0.00 | 0.03 | 0.03 | 78 | 1013.8 |
| 20260506224505 | 10 | 0 | 0.0 | 0.0 | 0.00 | 0.03 | 0.03 | 78 | 1013.8 |
| 20260506223626 | 10 | 0 | 0.0 | 0.0 | 0.00 | 0.03 | 0.03 | 78 | 1013.8 |
| 20260506222726 | 10 | 278 | 0.0 | 3.2 | 0.00 | 0.03 | 0.03 | 78 | 1013.8 |
| 20260506221806 | 10 | 278 | 0.0 | 3.2 | 0.00 | 0.03 | 0.03 | 77 | 1013.7 |
| 20260506220906 | 11 | 278 | 0.0 | 3.2 | 0.00 | 0.03 | 0.03 | 77 | 1013.7 |
| 20260506220027 | 11 | 0 | 0.0 | 0.0 | 0.00 | 0.03 | 0.03 | 77 | 1013.6 |
| 20260506215405 | 11 | 0 | 0.0 | 0.0 | 0.00 | 0.03 | 0.03 | 77 | 1013.5 |
| 20260506214505 | 11 | 0 | 0.0 | 1.6 | 0.00 | 0.03 | 0.03 | 76 | 1013.6 |
| 20260506213605 | 11 | 278 | 0.0 | 3.2 | 0.00 | 0.03 | 0.03 | 76 | 1013.6 |
| 20260506212705 | 11 | 278 | 1.6 | 4.8 | 0.00 | 0.03 | 0.03 | 76 | 1013.6 |
| 20260506211806 | 11 | 278 | 1.6 | 4.8 | 0.00 | 0.03 | 0.03 | 76 | 1013.7 |
| 20260506210905 | 11 | 278 | 3.2 | 4.8 | 0.00 | 0.03 | 0.03 | 76 | 1013.7 |
| 20260506210006 | 11 | 276 | 1.6 | 4.8 | 0.00 | 0.03 | 0.03 | 75 | 1013.6 |
| 20260506205405 | 11 | 259 | 1.6 | 4.8 | 0.00 | 0.03 | 0.03 | 75 | 1013.5 |
| 20260506204506 | 11 | 252 | 3.2 | 6.4 | 0.00 | 0.03 | 0.03 | 75 | 1013.4 |
| 20260506203605 | 11 | 254 | 3.2 | 6.4 | 0.00 | 0.03 | 0.03 | 74 | 1013.4 |
| 20260506202706 | 11 | 259 | 3.2 | 6.4 | 0.00 | 0.03 | 0.03 | 74 | 1013.3 |
| 20260506201827 | 11 | 258 | 3.2 | 9.7 | 0.00 | 0.03 | 0.03 | 74 | 1013.2 |
| 20260506200905 | 11 | 246 | 3.2 | 6.4 | 0.00 | 0.03 | 0.03 | 74 | 1013.2 |
| 20260506200005 | 11 | 241 | 3.2 | 8.0 | 0.00 | 0.03 | 0.03 | 73 | 1013.2 |
| 20260506195406 | 11 | 243 | 4.8 | 9.7 | 0.00 | 0.03 | 0.03 | 73 | 1013.1 |
| 20260506194504 | 11 | 241 | 4.8 | 8.0 | 0.00 | 0.03 | 0.03 | 72 | 1012.9 |
| 20260506193605 | 11 | 240 | 4.8 | 11.3 | 0.00 | 0.03 | 0.03 | 72 | 1012.9 |
| 20260506192705 | 12 | 241 | 4.8 | 9.7 | 0.00 | 0.03 | 0.03 | 71 | 1012.9 |
| 20260506191804 | 12 | 234 | 6.4 | 12.9 | 0.00 | 0.03 | 0.03 | 71 | 1012.8 |
| 20260506190905 | 12 | 233 | 6.4 | 11.3 | 0.00 | 0.03 | 0.03 | 70 | 1012.8 |
| 20260506190005 | 12 | 237 | 6.4 | 12.9 | 0.00 | 0.03 | 0.03 | 70 | 1012.7 |
| 20260506185404 | 12 | 236 | 6.4 | 12.9 | 0.00 | 0.03 | 0.03 | 70 | 1012.7 |
| 20260506184506 | 12 | 238 | 8.0 | 14.5 | 0.00 | 0.03 | 0.03 | 69 | 1012.7 |
| 20260506183605 | 12 | 236 | 8.0 | 14.5 | 0.00 | 0.03 | 0.03 | 68 | 1012.7 |
| 20260506182725 | 12 | 234 | 8.0 | 16.1 | 0.00 | 0.03 | 0.03 | 67 | 1012.6 |
| 20260506181827 | 12 | 239 | 4.8 | 12.9 | 0.00 | 0.03 | 0.03 | 67 | 1012.6 |
| 20260506180906 | 12 | 242 | 6.4 | 12.9 | 0.00 | 0.03 | 0.03 | 66 | 1012.5 |
| 20260506180006 | 12 | 233 | 8.0 | 16.1 | 0.00 | 0.03 | 0.03 | 66 | 1012.5 |
| 20260506175405 | 13 | 230 | 6.4 | 16.1 | 0.00 | 0.03 | 0.03 | 66 | 1012.4 |
| 20260506174505 | 13 | 233 | 8.0 | 16.1 | 0.00 | 0.03 | 0.03 | 66 | 1012.4 |
| 20260506173604 | 13 | 239 | 8.0 | 16.1 | 0.00 | 0.03 | 0.03 | 66 | 1012.3 |
| 20260506172704 | 13 | 245 | 8.0 | 16.1 | 0.00 | 0.03 | 0.03 | 66 | 1012.1 |
| 20260506171804 | 13 | 242 | 9.7 | 17.7 | 0.00 | 0.03 | 0.03 | 66 | 1012.1 |
| 20260506170926 | 13 | 239 | 9.7 | 19.3 | 0.00 | 0.03 | 0.03 | 66 | 1012.1 |
| 20260506170005 | 13 | 233 | 9.7 | 20.9 | 0.00 | 0.03 | 0.03 | 66 | 1012.1 |
| 20260506165405 | 13 | 238 | 6.4 | 12.9 | 0.00 | 0.03 | 0.03 | 66 | 1012.1 |
| 20260506164525 | 13 | 227 | 9.7 | 17.7 | 0.00 | 0.03 | 0.03 | 66 | 1012.0 |
| 20260506163626 | 13 | 223 | 9.7 | 19.3 | 0.00 | 0.03 | 0.03 | 66 | 1012.0 |
| 20260506162705 | 13 | 224 | 9.7 | 17.7 | 0.00 | 0.03 | 0.03 | 66 | 1012.0 |
| 20260506161804 | 13 | 220 | 9.7 | 19.3 | 0.00 | 0.03 | 0.03 | 66 | 1012.0 |
| 20260506160905 | 13 | 216 | 9.7 | 20.9 | 0.00 | 0.03 | 0.03 | 66 | 1012.1 |
| 20260506160004 | 14 | 207 | 9.7 | 20.9 | 0.00 | 0.03 | 0.03 | 66 | 1011.9 |
| 20260506155404 | 14 | 210 | 9.7 | 19.3 | 0.00 | 0.03 | 0.03 | 66 | 1012.0 |
| 20260506154504 | 14 | 210 | 11.3 | 22.5 | 0.00 | 0.03 | 0.03 | 65 | 1012.0 |
| 20260506153605 | 15 | 213 | 11.3 | 20.9 | 0.00 | 0.03 | 0.03 | 63 | 1012.0 |
| 20260506152726 | 15 | 223 | 9.7 | 17.7 | 0.00 | 0.03 | 0.03 | 64 | 1012.1 |
| 20260506151805 | 15 | 215 | 12.9 | 20.9 | 0.00 | 0.03 | 0.03 | 63 | 1012.0 |
| 20260506150925 | 15 | 224 | 9.7 | 17.7 | 0.00 | 0.03 | 0.03 | 64 | 1011.9 |
| 20260506150005 | 15 | 225 | 8.0 | 16.1 | 0.00 | 0.03 | 0.03 | 63 | 1012.1 |
| 20260506145405 | 15 | 229 | 6.4 | 14.5 | 0.00 | 0.03 | 0.03 | 63 | 1012.1 |
| 20260506144505 | 14 | 230 | 9.7 | 16.1 | 0.00 | 0.03 | 0.03 | 62 | 1012.3 |